STARLINK-2559 (48298 NORAD) Tracking and Keplerian Element Data

This shows tracking and keplerian element data for the satellite.

Feedback or suggestion? Click here.




ElementValue
Catalog48298
NameSTARLINK-2559
Epoch Orbit1576
Epoch Day215.25002315
Epoch Year2021
RAAN60.9066
Inclination53.0577
Eccentricity0.0001871
Argument of Perigee77.2633
Mean Anonmoly355.341
Mean Motion15.06412616
Decay Rate-0.00032888
L11 48298U 21036Y 21215.25002315 -.00032888 00000-0 -21984-2 0 9999
L22 48298 53.0577 60.9066 0001871 77.2633 355.3410 15.06412616 15764

Live tracking and technical data element details for STARLINK-2559 (NORAD 48298). STARLINK-2559 can be tracked NOW for your location showing map with azimuth and elevation plus other details from your city location.

Track the satellite on the map from your city or location and see movement details for azimuth, elevation, latitude, longitude, range, height, and movement on the map or in text.







IsCatalogInMostPopularTable: catalog: 48298, numindb: 33
Update: records affected: 1



GetName: 48298 STARLINK-2559

Hit Count: updated at: Tue, 03 Aug 2021 23:53:10 GMT